Time,TemperatureF,DewpointF,PressureIn,WindDirection,WindDirectionDegrees,WindSpeedMPH,WindSpeedGustMPH,Humidity,HourlyPrecipIn,Conditions,Clouds,dailyrainin,SoftwareType,DateUTC
2013-03-09 00:00:00,38.1,29.9,30.31,East,93,3.0,6.0,72,0.00,,,0.00,Wunderground v.1.15,2013-03-09 05:00:00,
2013-03-09 00:04:00,38.0,29.8,30.31,East,93,4.0,6.0,72,0.00,,,0.00,Wunderground v.1.15,2013-03-09 05:04:00,
2013-03-09 00:08:00,38.0,30.1,30.31,East,93,3.0,6.0,73,0.00,,,0.00,Wunderground v.1.15,2013-03-09 05:08:00,
2013-03-09 00:14:00,37.9,30.0,30.31,East,93,2.0,6.0,73,0.00,,,0.00,Wunderground v.1.15,2013-03-09 05:14:00,
2013-03-09 00:20:00,37.9,30.4,30.30,East,90,2.0,3.0,74,0.00,,,0.00,Wunderground v.1.15,2013-03-09 05:20:00,
2013-03-09 00:22:00,37.9,30.0,30.30,East,91,2.0,3.0,73,0.00,,,0.00,Wunderground v.1.15,2013-03-09 05:22:00,
2013-03-09 00:28:00,37.9,30.4,30.30,East,90,3.0,5.0,74,0.00,,,0.00,Wunderground v.1.15,2013-03-09 05:28:00,
2013-03-09 00:34:00,38.0,30.1,30.31,East,96,4.0,5.0,73,0.00,,,0.00,Wunderground v.1.15,2013-03-09 05:34:00,
2013-03-09 00:40:00,38.1,30.2,30.31,East,96,4.0,4.0,73,0.00,,,0.00,Wunderground v.1.15,2013-03-09 05:40:00,
2013-03-09 00:46:00,38.0,30.4,30.30,East,96,4.0,4.0,74,0.00,,,0.00,Wunderground v.1.15,2013-03-09 05:46:00,
2013-03-09 00:52:00,37.9,30.4,30.30,East,96,4.0,5.0,74,0.00,,,0.00,Wunderground v.1.15,2013-03-09 05:52:00,
2013-03-09 00:58:00,37.9,30.4,30.31,East,96,3.0,5.0,74,0.00,,,0.00,Wunderground v.1.15,2013-03-09 05:58:00,
2013-03-09 01:04:00,37.8,30.3,30.31,East,98,2.0,3.0,74,0.00,,,0.00,Wunderground v.1.15,2013-03-09 06:04:00,
2013-03-09 01:10:00,37.8,30.3,30.30,East,98,3.0,3.0,74,0.00,,,0.00,Wunderground v.1.15,2013-03-09 06:10:00,
2013-03-09 01:16:00,37.7,30.2,30.30,East,98,3.0,5.0,74,0.00,,,0.00,Wunderground v.1.15,2013-03-09 06:16:00,
2013-03-09 01:22:00,37.7,30.2,30.30,East,98,2.0,2.0,74,0.00,,,0.00,Wunderground v.1.15,2013-03-09 06:22:00,
2013-03-09 01:28:00,37.7,30.2,30.30,East,98,2.0,5.0,74,0.00,,,0.00,Wunderground v.1.15,2013-03-09 06:28:00,
2013-03-09 01:34:00,37.7,30.2,30.30,East,82,3.0,6.0,74,0.00,,,0.00,Wunderground v.1.15,2013-03-09 06:34:00,
2013-03-09 01:40:00,37.5,30.3,30.30,East,90,3.0,3.0,75,0.00,,,0.00,Wunderground v.1.15,2013-03-09 06:40:00,
2013-03-09 01:46:00,37.4,30.2,30.30,East,87,3.0,5.0,75,0.00,,,0.00,Wunderground v.1.15,2013-03-09 06:46:00,
2013-03-09 01:52:00,37.3,30.1,30.30,ESE,105,4.0,5.0,75,0.00,,,0.00,Wunderground v.1.15,2013-03-09 06:52:00,
2013-03-09 01:58:00,37.2,30.3,30.29,East,87,6.0,6.0,76,0.00,,,0.00,Wunderground v.1.15,2013-03-09 06:58:00,
2013-03-09 02:04:00,37.1,30.2,30.29,East,90,6.0,7.0,76,0.00,,,0.00,Wunderground v.1.15,2013-03-09 07:04:00,
2013-03-09 02:10:00,37.0,30.1,30.29,East,96,6.0,6.0,76,0.00,,,0.00,Wunderground v.1.15,2013-03-09 07:10:00,
2013-03-09 02:16:00,36.9,30.0,30.29,East,88,6.0,7.0,76,0.00,,,0.00,Wunderground v.1.15,2013-03-09 07:16:00,
2013-03-09 02:22:00,36.9,30.0,30.28,East,95,6.0,9.0,76,0.00,,,0.00,Wunderground v.1.15,2013-03-09 07:22:00,
2013-03-09 02:28:00,36.9,30.0,30.27,East,96,6.0,9.0,76,0.00,,,0.00,Wunderground v.1.15,2013-03-09 07:28:00,
2013-03-09 02:34:00,36.9,30.4,30.27,East,98,7.0,9.0,77,0.00,,,0.00,Wunderground v.1.15,2013-03-09 07:34:00,
2013-03-09 02:40:00,37.0,30.5,30.26,East,94,8.0,8.0,77,0.00,,,0.00,Wunderground v.1.15,2013-03-09 07:40:00,
2013-03-09 02:46:00,37.1,30.2,30.25,ESE,114,8.0,12.0,76,0.00,,,0.00,Wunderground v.1.15,2013-03-09 07:46:00,
2013-03-09 02:52:00,37.4,30.5,30.25,ESE,106,8.0,10.0,76,0.00,,,0.00,Wunderground v.1.15,2013-03-09 07:52:00,
2013-03-09 02:58:00,37.5,30.3,30.25,ESE,112,9.0,10.0,75,0.00,,,0.00,Wunderground v.1.15,2013-03-09 07:58:00,
2013-03-09 03:04:00,37.6,30.4,30.24,ESE,112,9.0,13.0,75,0.00,,,0.00,Wunderground v.1.15,2013-03-09 08:04:00,
2013-03-09 03:10:00,37.5,30.3,30.24,East,97,9.0,9.0,75,0.00,,,0.00,Wunderground v.1.15,2013-03-09 08:10:00,
2013-03-09 03:16:00,37.5,30.3,30.24,ESE,103,9.0,9.0,75,0.00,,,0.00,Wunderground v.1.15,2013-03-09 08:16:00,
2013-03-09 03:22:00,37.5,30.3,30.24,East,94,8.0,9.0,75,0.00,,,0.00,Wunderground v.1.15,2013-03-09 08:22:00,
2013-03-09 03:28:00,37.4,30.5,30.23,SE,134,8.0,9.0,76,0.00,,,0.00,Wunderground v.1.15,2013-03-09 08:28:00,
2013-03-09 03:34:00,37.4,30.2,30.23,East,91,8.0,8.0,75,0.00,,,0.00,Wunderground v.1.15,2013-03-09 08:34:00,
2013-03-09 03:40:00,37.5,30.3,30.23,ESE,104,8.0,8.0,75,0.00,,,0.00,Wunderground v.1.15,2013-03-09 08:40:00,
2013-03-09 03:46:00,37.5,30.3,30.23,ESE,107,8.0,8.0,75,0.00,,,0.00,Wunderground v.1.15,2013-03-09 08:46:00,
2013-03-09 03:52:00,37.5,30.3,30.23,East,92,8.0,9.0,75,0.00,,,0.00,Wunderground v.1.15,2013-03-09 08:52:00,
2013-03-09 03:58:00,37.4,30.2,30.23,ESE,107,7.0,9.0,75,0.00,,,0.00,Wunderground v.1.15,2013-03-09 08:58:00,
2013-03-09 04:04:00,37.4,30.2,30.23,East,101,7.0,9.0,75,0.00,,,0.00,Wunderground v.1.15,2013-03-09 09:04:00,
2013-03-09 04:10:00,37.5,30.3,30.23,ESE,111,7.0,7.0,75,0.00,,,0.00,Wunderground v.1.15,2013-03-09 09:10:00,
2013-03-09 04:16:00,37.6,30.4,30.23,ESE,110,7.0,8.0,75,0.00,,,0.00,Wunderground v.1.15,2013-03-09 09:16:00,
2013-03-09 04:22:00,37.7,30.5,30.24,East,101,7.0,7.0,75,0.00,,,0.00,Wunderground v.1.15,2013-03-09 09:22:00,
2013-03-09 04:28:00,37.7,30.8,30.24,ESE,104,6.0,7.0,76,0.00,,,0.00,Wunderground v.1.15,2013-03-09 09:28:00,
2013-03-09 04:34:00,37.9,30.7,30.24,ESE,115,5.0,6.0,75,0.00,,,0.00,Wunderground v.1.15,2013-03-09 09:34:00,
2013-03-09 04:40:00,37.9,30.7,30.25,ESE,115,3.0,3.0,75,0.00,,,0.00,Wunderground v.1.15,2013-03-09 09:40:00,
2013-03-09 04:46:00,38.0,30.8,30.25,SE,138,2.0,4.0,75,0.00,,,0.00,Wunderground v.1.15,2013-03-09 09:46:00,
2013-03-09 04:52:00,38.0,30.8,30.24,East,101,2.0,2.0,75,0.00,,,0.00,Wunderground v.1.15,2013-03-09 09:52:00,
2013-03-09 04:58:00,38.0,31.1,30.24,East,101,2.0,5.0,76,0.00,,,0.00,Wunderground v.1.15,2013-03-09 09:58:00,
2013-03-09 05:04:00,37.9,30.7,30.24,East,94,3.0,3.0,75,0.00,,,0.00,Wunderground v.1.15,2013-03-09 10:04:00,
2013-03-09 05:10:00,37.9,31.0,30.24,East,101,3.0,3.0,76,0.00,,,0.00,Wunderground v.1.15,2013-03-09 10:10:00,
2013-03-09 05:16:00,37.9,30.7,30.24,ESE,121,4.0,7.0,75,0.00,,,0.00,Wunderground v.1.15,2013-03-09 10:16:00,
2013-03-09 05:22:00,38.0,30.8,30.24,East,89,4.0,4.0,75,0.00,,,0.00,Wunderground v.1.15,2013-03-09 10:22:00,
2013-03-09 05:28:00,38.0,30.8,30.25,East,86,3.0,5.0,75,0.00,,,0.00,Wunderground v.1.15,2013-03-09 10:28:00,
2013-03-09 05:34:00,37.9,30.7,30.25,East,86,3.0,5.0,75,0.00,,,0.00,Wunderground v.1.15,2013-03-09 10:34:00,
2013-03-09 05:40:00,37.8,30.6,30.25,East,98,4.0,4.0,75,0.00,,,0.00,Wunderground v.1.15,2013-03-09 10:40:00,
2013-03-09 05:46:00,37.8,30.6,30.25,East,98,3.0,4.0,75,0.00,,,0.00,Wunderground v.1.15,2013-03-09 10:46:00,
2013-03-09 05:52:00,37.7,30.5,30.25,East,87,3.0,6.0,75,0.00,,,0.00,Wunderground v.1.15,2013-03-09 10:52:00,
2013-03-09 05:58:00,37.6,30.4,30.25,East,96,4.0,7.0,75,0.00,,,0.00,Wunderground v.1.15,2013-03-09 10:58:00,
2013-03-09 06:04:00,37.4,30.5,30.25,East,83,4.0,5.0,76,0.00,,,0.00,Wunderground v.1.15,2013-03-09 11:04:00,
2013-03-09 06:10:00,37.3,30.4,30.25,ESE,111,4.0,4.0,76,0.00,,,0.00,Wunderground v.1.15,2013-03-09 11:10:00,
2013-03-09 06:16:00,37.2,30.3,30.25,East,90,4.0,4.0,76,0.00,,,0.00,Wunderground v.1.15,2013-03-09 11:16:00,
2013-03-09 06:22:00,37.0,30.5,30.25,East,90,4.0,5.0,77,0.00,,,0.00,Wunderground v.1.15,2013-03-09 11:22:00,
2013-03-09 06:28:00,36.9,30.4,30.24,East,88,5.0,7.0,77,0.00,,,0.00,Wunderground v.1.15,2013-03-09 11:28:00,
2013-03-09 06:34:00,36.9,30.4,30.25,East,92,4.0,5.0,77,0.00,,,0.00,Wunderground v.1.15,2013-03-09 11:34:00,
2013-03-09 06:40:00,36.9,30.4,30.25,East,94,3.0,3.0,77,0.00,,,0.00,Wunderground v.1.15,2013-03-09 11:40:00,
2013-03-09 06:46:00,37.0,30.5,30.24,ESE,103,4.0,4.0,77,0.00,,,0.00,Wunderground v.1.15,2013-03-09 11:46:00,
2013-03-09 06:52:00,37.1,30.6,30.24,East,87,4.0,5.0,77,0.00,,,0.00,Wunderground v.1.15,2013-03-09 11:52:00,
2013-03-09 06:58:00,37.0,30.5,30.23,East,96,5.0,6.0,77,0.00,,,0.00,Wunderground v.1.15,2013-03-09 11:58:00,
2013-03-09 07:04:00,36.9,30.4,30.23,East,90,6.0,8.0,77,0.00,,,0.00,Wunderground v.1.15,2013-03-09 12:04:00,
2013-03-09 07:10:00,36.9,30.4,30.23,ENE,78,7.0,8.0,77,0.00,,,0.00,Wunderground v.1.15,2013-03-09 12:10:00,
2013-03-09 07:16:00,37.0,30.5,30.24,ESE,109,6.0,8.0,77,0.00,,,0.00,Wunderground v.1.15,2013-03-09 12:16:00,
2013-03-09 07:22:00,37.0,30.5,30.24,ESE,109,5.0,6.0,77,0.00,,,0.00,Wunderground v.1.15,2013-03-09 12:22:00,
2013-03-09 07:28:00,37.1,30.6,30.23,East,95,6.0,7.0,77,0.00,,,0.00,Wunderground v.1.15,2013-03-09 12:28:00,
2013-03-09 07:34:00,37.2,30.7,30.23,ESE,103,7.0,7.0,77,0.00,,,0.00,Wunderground v.1.15,2013-03-09 12:34:00,
2013-03-09 07:40:00,37.3,30.4,30.23,ESE,111,6.0,7.0,76,0.00,,,0.00,Wunderground v.1.15,2013-03-09 12:40:00,
2013-03-09 07:46:00,37.3,30.7,30.24,East,96,6.0,7.0,77,0.00,,,0.00,Wunderground v.1.15,2013-03-09 12:46:00,
2013-03-09 07:52:00,37.4,30.8,30.23,East,96,5.0,7.0,77,0.00,,,0.00,Wunderground v.1.15,2013-03-09 12:52:00,
2013-03-09 07:58:00,37.5,30.6,30.24,ENE,76,5.0,7.0,76,0.00,,,0.00,Wunderground v.1.15,2013-03-09 12:58:00,
2013-03-09 08:04:00,37.6,30.7,30.24,East,79,4.0,5.0,76,0.00,,,0.00,Wunderground v.1.15,2013-03-09 13:04:00,
2013-03-09 08:10:00,37.7,31.1,30.23,East,92,4.0,6.0,77,0.00,,,0.00,Wunderground v.1.15,2013-03-09 13:10:00,
2013-03-09 08:16:00,37.8,30.9,30.22,East,85,5.0,7.0,76,0.00,,,0.00,Wunderground v.1.15,2013-03-09 13:16:00,
2013-03-09 08:22:00,37.9,31.0,30.23,ESE,108,6.0,7.0,76,0.00,,,0.00,Wunderground v.1.15,2013-03-09 13:22:00,
2013-03-09 08:28:00,38.0,31.1,30.23,East,99,5.0,7.0,76,0.00,,,0.00,Wunderground v.1.15,2013-03-09 13:28:00,
2013-03-09 08:34:00,38.1,31.2,30.23,ESE,107,5.0,5.0,76,0.00,,,0.00,Wunderground v.1.15,2013-03-09 13:34:00,
2013-03-09 08:40:00,38.3,31.4,30.23,East,96,5.0,6.0,76,0.00,,,0.00,Wunderground v.1.15,2013-03-09 13:40:00,
2013-03-09 08:46:00,38.5,31.9,30.23,ESE,118,5.0,7.0,77,0.00,,,0.00,Wunderground v.1.15,2013-03-09 13:46:00,
2013-03-09 08:52:00,38.7,31.5,30.23,East,93,5.0,8.0,75,0.00,,,0.00,Wunderground v.1.15,2013-03-09 13:52:00,
2013-03-09 08:58:00,38.9,32.0,30.23,East,91,5.0,8.0,76,0.00,,,0.00,Wunderground v.1.15,2013-03-09 13:58:00,
2013-03-09 09:04:00,39.1,31.8,30.23,ESE,103,5.0,8.0,75,0.00,,,0.00,Wunderground v.1.15,2013-03-09 14:04:00,
2013-03-09 09:10:00,39.3,32.0,30.23,East,89,6.0,8.0,75,0.00,,,0.00,Wunderground v.1.15,2013-03-09 14:10:00,
2013-03-09 09:16:00,39.4,32.1,30.22,East,86,7.0,9.0,75,0.00,,,0.00,Wunderground v.1.15,2013-03-09 14:16:00,
2013-03-09 09:22:00,39.5,32.2,30.21,ESE,115,8.0,8.0,75,0.00,,,0.00,Wunderground v.1.15,2013-03-09 14:22:00,
2013-03-09 09:28:00,39.7,32.4,30.22,East,91,7.0,8.0,75,0.00,,,0.00,Wunderground v.1.15,2013-03-09 14:28:00,
2013-03-09 09:34:00,40.0,32.4,30.22,East,92,7.0,9.0,74,0.00,,,0.00,Wunderground v.1.15,2013-03-09 14:34:00,
2013-03-09 09:40:00,40.1,32.5,30.22,East,89,8.0,8.0,74,0.00,,,0.00,Wunderground v.1.15,2013-03-09 14:40:00,
2013-03-09 09:46:00,40.3,32.7,30.22,East,89,7.0,8.0,74,0.00,,,0.00,Wunderground v.1.15,2013-03-09 14:46:00,
2013-03-09 09:52:00,40.5,32.5,30.22,East,81,6.0,7.0,73,0.00,,,0.00,Wunderground v.1.15,2013-03-09 14:52:00,
2013-03-09 09:58:00,41.1,33.1,30.22,East,98,6.0,8.0,73,0.00,,,0.00,Wunderground v.1.15,2013-03-09 14:58:00,
2013-03-09 10:04:00,42.1,34.1,30.22,East,96,7.0,9.0,73,0.00,,,0.00,Wunderground v.1.15,2013-03-09 15:04:00,
2013-03-09 10:10:00,42.9,34.5,30.21,East,88,7.0,8.0,72,0.00,,,0.00,Wunderground v.1.15,2013-03-09 15:10:00,
2013-03-09 10:16:00,43.6,34.5,30.22,East,91,7.0,8.0,70,0.00,,,0.00,Wunderground v.1.15,2013-03-09 15:16:00,
2013-03-09 10:22:00,44.2,33.9,30.22,ESE,119,8.0,8.0,67,0.00,,,0.00,Wunderground v.1.15,2013-03-09 15:22:00,
2013-03-09 10:28:00,44.8,34.9,30.21,ESE,103,7.0,9.0,68,0.00,,,0.00,Wunderground v.1.15,2013-03-09 15:28:00,
2013-03-09 10:34:00,45.5,35.9,30.21,East,98,6.0,7.0,69,0.00,,,0.00,Wunderground v.1.15,2013-03-09 15:34:00,
2013-03-09 10:40:00,45.7,35.4,30.21,ESE,113,6.0,6.0,67,0.00,,,0.00,Wunderground v.1.15,2013-03-09 15:40:00,
2013-03-09 10:46:00,45.9,34.8,30.20,East,98,7.0,9.0,65,0.00,,,0.00,Wunderground v.1.15,2013-03-09 15:46:00,
2013-03-09 10:52:00,46.3,35.2,30.20,East,99,8.0,8.0,65,0.00,,,0.00,Wunderground v.1.15,2013-03-09 15:52:00,
2013-03-09 10:58:00,46.6,35.8,30.20,ENE,78,7.0,8.0,66,0.00,,,0.00,Wunderground v.1.15,2013-03-09 15:58:00,
2013-03-09 11:04:00,47.3,36.9,30.20,ESE,123,6.0,9.0,67,0.00,,,0.00,Wunderground v.1.15,2013-03-09 16:04:00,
2013-03-09 11:10:00,47.9,35.1,30.20,ESE,122,6.0,6.0,61,0.00,,,0.00,Wunderground v.1.15,2013-03-09 16:10:00,
2013-03-09 11:16:00,48.4,36.0,30.19,ESE,104,5.0,7.0,62,0.00,,,0.00,Wunderground v.1.15,2013-03-09 16:16:00,
2013-03-09 11:22:00,48.9,35.6,30.20,ESE,113,5.0,7.0,60,0.00,,,0.00,Wunderground v.1.15,2013-03-09 16:22:00,
2013-03-09 11:28:00,49.9,36.6,30.20,East,95,4.0,7.0,60,0.00,,,0.00,Wunderground v.1.15,2013-03-09 16:28:00,
2013-03-09 11:34:00,50.6,37.6,30.20,East,81,4.0,6.0,61,0.00,,,0.00,Wunderground v.1.15,2013-03-09 16:34:00,
2013-03-09 11:40:00,51.0,35.8,30.20,ESE,103,4.0,5.0,56,0.00,,,0.00,Wunderground v.1.15,2013-03-09 16:40:00,
2013-03-09 11:46:00,51.6,38.2,30.20,SE,128,5.0,7.0,60,0.00,,,0.00,Wunderground v.1.15,2013-03-09 16:46:00,
2013-03-09 11:52:00,51.9,36.2,30.19,ESE,117,5.0,5.0,55,0.00,,,0.00,Wunderground v.1.15,2013-03-09 16:52:00,
2013-03-09 11:58:00,52.2,36.0,30.19,ESE,109,5.0,5.0,54,0.00,,,0.00,Wunderground v.1.15,2013-03-09 16:58:00,
2013-03-09 12:04:00,52.9,38.5,30.18,East,101,5.0,8.0,58,0.00,,,0.00,Wunderground v.1.15,2013-03-09 17:04:00,
2013-03-09 12:10:00,53.3,36.6,30.18,ESE,109,6.0,6.0,53,0.00,,,0.00,Wunderground v.1.15,2013-03-09 17:10:00,
2013-03-09 12:16:00,53.6,37.8,30.18,ESE,117,5.0,6.0,55,0.00,,,0.00,Wunderground v.1.15,2013-03-09 17:16:00,
2013-03-09 12:22:00,53.8,37.1,30.18,SE,126,5.0,10.0,53,0.00,,,0.00,Wunderground v.1.15,2013-03-09 17:22:00,
2013-03-09 12:28:00,54.2,36.9,30.18,ESE,115,5.0,10.0,52,0.00,,,0.00,Wunderground v.1.15,2013-03-09 17:28:00,
2013-03-09 12:34:00,54.6,36.3,30.17,ESE,110,5.0,7.0,50,0.00,,,0.00,Wunderground v.1.15,2013-03-09 17:34:00,
2013-03-09 12:40:00,54.8,35.5,30.17,ESE,115,6.0,8.0,48,0.00,,,0.00,Wunderground v.1.15,2013-03-09 17:40:00,
2013-03-09 12:46:00,55.1,36.3,30.17,SSW,211,7.0,8.0,49,0.00,,,0.00,Wunderground v.1.15,2013-03-09 17:46:00,
2013-03-09 12:52:00,55.9,36.5,30.17,ESE,111,5.0,8.0,48,0.00,,,0.00,Wunderground v.1.15,2013-03-09 17:52:00,
2013-03-09 12:58:00,55.9,35.9,30.16,ESE,117,6.0,8.0,47,0.00,,,0.00,Wunderground v.1.15,2013-03-09 17:58:00,
2013-03-09 13:04:00,56.4,35.9,30.16,SSW,213,6.0,6.0,46,0.00,,,0.00,Wunderground v.1.15,2013-03-09 18:04:00,
2013-03-09 13:10:00,56.6,37.1,30.15,SSE,161,6.0,6.0,48,0.00,,,0.00,Wunderground v.1.15,2013-03-09 18:10:00,
2013-03-09 13:16:00,56.6,35.5,30.15,SE,130,5.0,6.0,45,0.00,,,0.00,Wunderground v.1.15,2013-03-09 18:16:00,
2013-03-09 13:22:00,56.6,35.5,30.15,ESE,108,5.0,9.0,45,0.00,,,0.00,Wunderground v.1.15,2013-03-09 18:22:00,
2013-03-09 13:28:00,56.8,35.7,30.14,SSE,163,4.0,9.0,45,0.00,,,0.00,Wunderground v.1.15,2013-03-09 18:28:00,
2013-03-09 13:34:00,57.1,35.4,30.14,SSE,165,4.0,5.0,44,0.00,,,0.00,Wunderground v.1.15,2013-03-09 18:34:00,
2013-03-09 13:40:00,57.1,35.9,30.13,ESE,121,4.0,7.0,45,0.00,,,0.00,Wunderground v.1.15,2013-03-09 18:40:00,
2013-03-09 13:46:00,56.9,35.2,30.13,SE,146,5.0,10.0,44,0.00,,,0.00,Wunderground v.1.15,2013-03-09 18:46:00,
2013-03-09 13:52:00,56.8,35.1,30.13,SSE,163,5.0,7.0,44,0.00,,,0.00,Wunderground v.1.15,2013-03-09 18:52:00,
2013-03-09 13:58:00,56.7,36.1,30.13,SE,143,5.0,7.0,46,0.00,,,0.00,Wunderground v.1.15,2013-03-09 18:58:00,
2013-03-09 14:04:00,56.7,36.1,30.12,ESE,121,5.0,7.0,46,0.00,,,0.00,Wunderground v.1.15,2013-03-09 19:04:00,
2013-03-09 14:10:00,57.0,35.9,30.11,SE,125,5.0,6.0,45,0.00,,,0.00,Wunderground v.1.15,2013-03-09 19:10:00,
2013-03-09 14:16:00,57.3,36.1,30.11,SE,126,5.0,9.0,45,0.00,,,0.00,Wunderground v.1.15,2013-03-09 19:16:00,
2013-03-09 14:22:00,57.8,36.0,30.10,SSE,150,6.0,8.0,44,0.00,,,0.00,Wunderground v.1.15,2013-03-09 19:22:00,
2013-03-09 14:28:00,57.8,36.0,30.09,SSE,159,7.0,8.0,44,0.00,,,0.00,Wunderground v.1.15,2013-03-09 19:28:00,
2013-03-09 14:34:00,57.6,36.4,30.09,East,98,7.0,7.0,45,0.00,,,0.00,Wunderground v.1.15,2013-03-09 19:34:00,
2013-03-09 14:40:00,57.6,35.8,30.09,ESE,121,5.0,5.0,44,0.00,,,0.00,Wunderground v.1.15,2013-03-09 19:40:00,
2013-03-09 14:46:00,57.6,36.4,30.09,SE,139,4.0,5.0,45,0.00,,,0.00,Wunderground v.1.15,2013-03-09 19:46:00,
2013-03-09 14:52:00,57.6,35.8,30.08,SE,136,6.0,6.0,44,0.00,,,0.00,Wunderground v.1.15,2013-03-09 19:52:00,
2013-03-09 14:58:00,57.7,37.0,30.08,East,93,5.0,8.0,46,0.00,,,0.00,Wunderground v.1.15,2013-03-09 19:58:00,
2013-03-09 15:04:00,57.8,35.4,30.08,ESE,123,5.0,5.0,43,0.00,,,0.00,Wunderground v.1.15,2013-03-09 20:04:00,
2013-03-09 15:10:00,58.0,36.2,30.08,ESE,121,4.0,4.0,44,0.00,,,0.00,Wunderground v.1.15,2013-03-09 20:10:00,
2013-03-09 15:16:00,58.2,36.9,30.08,SE,138,4.0,5.0,45,0.00,,,0.00,Wunderground v.1.15,2013-03-09 20:16:00,
2013-03-09 15:22:00,58.5,36.1,30.07,SSE,150,4.0,5.0,43,0.00,,,0.00,Wunderground v.1.15,2013-03-09 20:22:00,
2013-03-09 15:28:00,59.5,37.0,30.08,SW,229,4.0,9.0,43,0.00,,,0.00,Wunderground v.1.15,2013-03-09 20:28:00,
2013-03-09 15:34:00,60.3,34.6,30.07,SW,220,5.0,8.0,38,0.00,,,0.00,Wunderground v.1.15,2013-03-09 20:34:00,
2013-03-09 15:40:00,60.4,34.0,30.07,South,188,5.0,5.0,37,0.00,,,0.00,Wunderground v.1.15,2013-03-09 20:40:00,
2013-03-09 15:46:00,60.3,35.2,30.07,SE,136,5.0,6.0,39,0.00,,,0.00,Wunderground v.1.15,2013-03-09 20:46:00,
2013-03-09 15:52:00,60.0,35.0,30.07,SSW,196,5.0,10.0,39,0.00,,,0.00,Wunderground v.1.15,2013-03-09 20:52:00,
2013-03-09 15:58:00,59.8,36.0,30.07,South,174,5.0,10.0,41,0.00,,,0.00,Wunderground v.1.15,2013-03-09 20:58:00,
2013-03-09 16:04:00,59.5,33.9,30.07,South,188,5.0,5.0,38,0.00,,,0.00,Wunderground v.1.15,2013-03-09 21:04:00,
2013-03-09 16:10:00,59.6,34.6,30.06,SSW,209,7.0,7.0,39,0.00,,,0.00,Wunderground v.1.15,2013-03-09 21:10:00,
2013-03-09 16:16:00,60.1,36.3,30.06,ESE,105,6.0,7.0,41,0.00,,,0.00,Wunderground v.1.15,2013-03-09 21:16:00,
2013-03-09 16:22:00,60.2,34.5,30.06,SSE,153,6.0,12.0,38,0.00,,,0.00,Wunderground v.1.15,2013-03-09 21:22:00,
2013-03-09 16:28:00,60.2,35.1,30.06,SE,136,7.0,12.0,39,0.00,,,0.00,Wunderground v.1.15,2013-03-09 21:28:00,
2013-03-09 16:34:00,59.9,34.9,30.05,SSE,163,7.0,9.0,39,0.00,,,0.00,Wunderground v.1.15,2013-03-09 21:34:00,
2013-03-09 16:40:00,59.7,35.3,30.05,South,169,5.0,5.0,40,0.00,,,0.00,Wunderground v.1.15,2013-03-09 21:40:00,
2013-03-09 16:46:00,59.5,36.4,30.05,ESE,111,4.0,5.0,42,0.00,,,0.00,Wunderground v.1.15,2013-03-09 21:46:00,
2013-03-09 16:52:00,59.3,35.0,30.04,SE,131,5.0,9.0,40,0.00,,,0.00,Wunderground v.1.15,2013-03-09 21:52:00,
2013-03-09 16:58:00,59.2,36.1,30.04,SE,124,6.0,9.0,42,0.00,,,0.00,Wunderground v.1.15,2013-03-09 21:58:00,
2013-03-09 17:04:00,59.1,34.8,30.04,ESE,119,6.0,10.0,40,0.00,,,0.00,Wunderground v.1.15,2013-03-09 22:04:00,
2013-03-09 17:10:00,59.1,36.0,30.04,SE,132,7.0,10.0,42,0.00,,,0.00,Wunderground v.1.15,2013-03-09 22:10:00,
2013-03-09 17:16:00,59.1,36.0,30.04,SE,144,8.0,10.0,42,0.00,,,0.00,Wunderground v.1.15,2013-03-09 22:16:00,
2013-03-09 17:22:00,59.0,35.9,30.03,ESE,122,7.0,13.0,42,0.00,,,0.00,Wunderground v.1.15,2013-03-09 22:22:00,
2013-03-09 17:28:00,58.8,36.9,30.04,SE,142,7.0,13.0,44,0.00,,,0.00,Wunderground v.1.15,2013-03-09 22:28:00,
2013-03-09 17:34:00,58.4,36.6,30.04,SE,138,6.0,8.0,44,0.00,,,0.00,Wunderground v.1.15,2013-03-09 22:34:00,
2013-03-09 17:40:00,58.2,36.4,30.03,SE,128,6.0,6.0,44,0.00,,,0.00,Wunderground v.1.15,2013-03-09 22:40:00,
2013-03-09 17:46:00,57.9,36.7,30.03,ESE,119,6.0,6.0,45,0.00,,,0.00,Wunderground v.1.15,2013-03-09 22:46:00,
2013-03-09 17:52:00,57.8,36.6,30.03,SE,132,5.0,6.0,45,0.00,,,0.00,Wunderground v.1.15,2013-03-09 22:52:00,
2013-03-09 17:58:00,57.7,35.9,30.02,ESE,120,6.0,8.0,44,0.00,,,0.00,Wunderground v.1.15,2013-03-09 22:58:00,
2013-03-09 18:04:00,57.7,35.9,30.02,SE,144,6.0,9.0,44,0.00,,,0.00,Wunderground v.1.15,2013-03-09 23:04:00,
2013-03-09 18:10:00,57.8,36.0,30.02,SE,136,7.0,9.0,44,0.00,,,0.00,Wunderground v.1.15,2013-03-09 23:10:00,
2013-03-09 18:16:00,57.8,36.0,30.02,SSE,149,6.0,9.0,44,0.00,,,0.00,Wunderground v.1.15,2013-03-09 23:16:00,
2013-03-09 18:22:00,57.7,35.9,30.02,ESE,111,5.0,9.0,44,0.00,,,0.00,Wunderground v.1.15,2013-03-09 23:22:00,
2013-03-09 18:28:00,57.5,35.7,30.02,ESE,119,6.0,9.0,44,0.00,,,0.00,Wunderground v.1.15,2013-03-09 23:28:00,
2013-03-09 18:34:00,57.4,36.2,30.02,ESE,105,6.0,9.0,45,0.00,,,0.00,Wunderground v.1.15,2013-03-09 23:34:00,
2013-03-09 18:40:00,57.2,36.0,30.02,ESE,119,5.0,8.0,45,0.00,,,0.00,Wunderground v.1.15,2013-03-09 23:40:00,
2013-03-09 18:46:00,57.0,35.9,30.02,ESE,107,5.0,8.0,45,0.00,,,0.00,Wunderground v.1.15,2013-03-09 23:46:00,
2013-03-09 18:52:00,56.7,36.1,30.02,ESE,123,5.0,8.0,46,0.00,,,0.00,Wunderground v.1.15,2013-03-09 23:52:00,
2013-03-09 18:58:00,56.6,36.6,30.02,ESE,113,4.0,8.0,47,0.00,,,0.00,Wunderground v.1.15,2013-03-09 23:58:00,
2013-03-09 19:04:00,56.4,36.9,30.02,SE,132,4.0,5.0,48,0.00,,,0.00,Wunderground v.1.15,2013-03-10 00:04:00,
2013-03-09 19:10:00,56.4,35.9,30.02,ESE,123,4.0,4.0,46,0.00,,,0.00,Wunderground v.1.15,2013-03-10 00:10:00,
2013-03-09 19:16:00,56.3,35.8,30.02,SSE,148,5.0,7.0,46,0.00,,,0.00,Wunderground v.1.15,2013-03-10 00:16:00,
2013-03-09 19:22:00,56.3,36.3,30.02,ESE,111,5.0,5.0,47,0.00,,,0.00,Wunderground v.1.15,2013-03-10 00:22:00,
2013-03-09 19:28:00,56.2,36.2,30.02,East,97,5.0,7.0,47,0.00,,,0.00,Wunderground v.1.15,2013-03-10 00:28:00,
2013-03-09 19:34:00,56.1,36.7,30.01,ESE,103,5.0,5.0,48,0.00,,,0.00,Wunderground v.1.15,2013-03-10 00:34:00,
2013-03-09 19:40:00,56.1,36.7,30.01,ESE,109,5.0,5.0,48,0.00,,,0.00,Wunderground v.1.15,2013-03-10 00:40:00,
2013-03-09 19:46:00,56.0,36.6,30.01,ESE,117,5.0,5.0,48,0.00,,,0.00,Wunderground v.1.15,2013-03-10 00:46:00,
2013-03-09 19:52:00,56.0,36.6,30.01,East,99,5.0,9.0,48,0.00,,,0.00,Wunderground v.1.15,2013-03-10 00:52:00,
2013-03-09 19:58:00,56.0,36.6,30.01,SE,132,4.0,9.0,48,0.00,,,0.00,Wunderground v.1.15,2013-03-10 00:58:00,
2013-03-09 20:04:00,56.0,36.6,30.01,ESE,121,4.0,4.0,48,0.00,,,0.00,Wunderground v.1.15,2013-03-10 01:04:00,
2013-03-09 20:10:00,55.9,36.5,30.01,SE,126,4.0,4.0,48,0.00,,,0.00,Wunderground v.1.15,2013-03-10 01:10:00,
2013-03-09 20:16:00,55.9,36.5,30.01,SSE,157,4.0,5.0,48,0.00,,,0.00,Wunderground v.1.15,2013-03-10 01:16:00,
2013-03-09 20:22:00,55.9,36.5,30.01,SSE,148,4.0,5.0,48,0.00,,,0.00,Wunderground v.1.15,2013-03-10 01:22:00,
2013-03-09 20:28:00,55.9,36.5,30.01,SE,129,4.0,7.0,48,0.00,,,0.00,Wunderground v.1.15,2013-03-10 01:28:00,
2013-03-09 20:34:00,56.0,36.6,30.01,East,101,4.0,5.0,48,0.00,,,0.00,Wunderground v.1.15,2013-03-10 01:34:00,
2013-03-09 20:40:00,56.0,36.6,30.01,ESE,119,4.0,4.0,48,0.00,,,0.00,Wunderground v.1.15,2013-03-10 01:40:00,
2013-03-09 20:46:00,55.9,36.5,30.01,SE,129,4.0,6.0,48,0.00,,,0.00,Wunderground v.1.15,2013-03-10 01:46:00,
2013-03-09 20:52:00,55.9,36.5,30.00,ESE,115,4.0,5.0,48,0.00,,,0.00,Wunderground v.1.15,2013-03-10 01:52:00,
2013-03-09 20:58:00,55.9,37.0,30.01,ESE,119,4.0,5.0,49,0.00,,,0.00,Wunderground v.1.15,2013-03-10 01:58:00,
2013-03-09 21:04:00,55.9,36.5,30.00,ESE,117,4.0,8.0,48,0.00,,,0.00,Wunderground v.1.15,2013-03-10 02:04:00,
2013-03-09 21:10:00,56.0,36.6,30.00,SE,129,5.0,6.0,48,0.00,,,0.00,Wunderground v.1.15,2013-03-10 02:10:00,
2013-03-09 21:16:00,56.0,37.1,30.00,ESE,113,5.0,6.0,49,0.00,,,0.00,Wunderground v.1.15,2013-03-10 02:16:00,
2013-03-09 21:22:00,56.1,36.7,30.00,SE,140,5.0,7.0,48,0.00,,,0.00,Wunderground v.1.15,2013-03-10 02:22:00,
2013-03-09 21:28:00,56.1,37.2,30.00,SE,126,5.0,7.0,49,0.00,,,0.00,Wunderground v.1.15,2013-03-10 02:28:00,
2013-03-09 21:34:00,56.2,36.8,30.00,SE,137,5.0,5.0,48,0.00,,,0.00,Wunderground v.1.15,2013-03-10 02:34:00,
2013-03-09 21:40:00,56.3,36.8,30.00,SE,140,6.0,9.0,48,0.00,,,0.00,Wunderground v.1.15,2013-03-10 02:40:00,
2013-03-09 21:46:00,56.4,36.9,30.00,SSE,167,6.0,10.0,48,0.00,,,0.00,Wunderground v.1.15,2013-03-10 02:46:00,
2013-03-09 21:52:00,56.5,36.5,30.00,ESE,111,6.0,8.0,47,0.00,,,0.00,Wunderground v.1.15,2013-03-10 02:52:00,
2013-03-09 21:58:00,56.6,37.1,29.99,East,96,6.0,10.0,48,0.00,,,0.00,Wunderground v.1.15,2013-03-10 02:58:00,
2013-03-09 22:04:00,56.6,36.6,29.99,ESE,114,6.0,8.0,47,0.00,,,0.00,Wunderground v.1.15,2013-03-10 03:04:00,
2013-03-09 22:10:00,56.6,36.6,29.99,East,96,7.0,7.0,47,0.00,,,0.00,Wunderground v.1.15,2013-03-10 03:10:00,
2013-03-09 22:16:00,56.6,37.1,29.99,ESE,113,7.0,8.0,48,0.00,,,0.00,Wunderground v.1.15,2013-03-10 03:16:00,
2013-03-09 22:22:00,56.6,36.6,29.99,SE,136,7.0,7.0,47,0.00,,,0.00,Wunderground v.1.15,2013-03-10 03:22:00,
2013-03-09 22:28:00,56.6,36.6,29.99,SE,138,7.0,7.0,47,0.00,,,0.00,Wunderground v.1.15,2013-03-10 03:28:00,
2013-03-09 22:34:00,56.6,37.1,29.99,SE,142,7.0,8.0,48,0.00,,,0.00,Wunderground v.1.15,2013-03-10 03:34:00,
2013-03-09 22:40:00,56.6,37.1,29.99,ESE,114,6.0,8.0,48,0.00,,,0.00,Wunderground v.1.15,2013-03-10 03:40:00,
2013-03-09 22:46:00,56.6,36.6,29.98,SE,126,6.0,8.0,47,0.00,,,0.00,Wunderground v.1.15,2013-03-10 03:46:00,
2013-03-09 22:52:00,56.7,36.7,29.98,SSE,155,7.0,8.0,47,0.00,,,0.00,Wunderground v.1.15,2013-03-10 03:52:00,
2013-03-09 22:58:00,56.7,37.7,29.98,SE,125,6.0,8.0,49,0.00,,,0.00,Wunderground v.1.15,2013-03-10 03:58:00,
2013-03-09 23:04:00,56.6,37.1,29.98,SE,132,6.0,8.0,48,0.00,,,0.00,Wunderground v.1.15,2013-03-10 04:04:00,
2013-03-09 23:10:00,56.6,37.1,29.98,SE,125,6.0,6.0,48,0.00,,,0.00,Wunderground v.1.15,2013-03-10 04:10:00,
2013-03-09 23:16:00,56.5,37.0,29.97,SSE,153,6.0,8.0,48,0.00,,,0.00,Wunderground v.1.15,2013-03-10 04:16:00,
2013-03-09 23:22:00,56.6,37.1,29.97,ESE,111,6.0,6.0,48,0.00,,,0.00,Wunderground v.1.15,2013-03-10 04:22:00,
2013-03-09 23:28:00,56.7,37.2,29.97,SE,144,6.0,11.0,48,0.00,,,0.00,Wunderground v.1.15,2013-03-10 04:28:00,
2013-03-09 23:34:00,56.7,37.2,29.97,SSE,150,7.0,11.0,48,0.00,,,0.00,Wunderground v.1.15,2013-03-10 04:34:00,
2013-03-09 23:40:00,56.7,37.2,29.97,SE,128,6.0,6.0,48,0.00,,,0.00,Wunderground v.1.15,2013-03-10 04:40:00,
2013-03-09 23:46:00,56.7,37.2,29.97,SE,132,6.0,7.0,48,0.00,,,0.00,Wunderground v.1.15,2013-03-10 04:46:00,
2013-03-09 23:52:00,56.8,36.8,29.97,SE,146,6.0,6.0,47,0.00,,,0.00,Wunderground v.1.15,2013-03-10 04:52:00,
2013-03-09 23:58:00,56.9,36.9,29.97,ESE,116,6.0,6.0,47,0.00,,,0.00,Wunderground v.1.15,2013-03-10 04:58:00,